[[[{"header":{"parameterUnit":"kt","parameterCategory":2,"dx":1,"dy":1,"la1":30.253999710083008,"la2":30.299108505249023,"lo1":-89.0895004272461,"lo2":-89.04439544677734,"nx":28,"ny":28,"refTime":"2022-09-27T21:00:00:Z","depth":0,"parameterNumber":1,"parameterNumberName":"U-component_of_WINDS"},"data":[-8.8111,-8.8357,-8.8314,-8.8573,-8.8577,-8.8747,-8.8794,-8.8848,-8.888,-8.9076,-8.918,-8.9159,-8.9172,-8.9284,-8.9394,-8.9382,-8.9434,-8.9553,-8.952,-8.9025,-8.8954,-8.8886,-8.8828,-8.9564,-8.9564,-9.004,-9.0044,-9.0048,-8.7752,-8.7759,-8.7883,-8.7974,-8.808,-8.7937,-8.7997,-8.8095,-8.8251,-8.8291,-8.8391,-8.8559,-8.8685,-8.8657,-8.877,-8.8883,-8.8824,-8.8918,-8.8912,-8.8917,-8.8385,-8.8323,-8.8964,-8.8964,-8.8964,-8.8964,-8.8963,-8.8963,-8.7087,-8.7236,-8.7265,-8.7399,-8.7432,-8.7492,-8.7626,-8.7597,-8.7717,-8.7832,-8.7752,-8.7927,-8.7958,-8.8072,-8.8098,-8.8232,-8.812,-8.8209,-8.8233,-8.8259,-8.8295,-8.7622,-8.8248,-8.8246,-8.8244,-8.8242,-8.8241,0,-8.6588,-8.6541,-8.6657,-8.676,-8.6855,-8.693,-8.6991,-8.7072,-8.6954,-8.7058,-8.7205,-8.7281,-8.7432,-8.7565,-8.766,-8.7668,-8.7535,-8.7514,-8.7576,-8.7622,-8.765,-8.7644,-8.6784,-8.7498,-8.7491,-8.7486,-8.7483,-8.748,-8.5919,-8.6097,-8.6104,-8.6192,-8.6214,-8.6356,-8.6432,-8.6314,-8.6399,-8.6456,-8.6593,-8.6722,-8.6822,-8.7063,-8.7026,-8.7139,-8.7076,-8.7354,-8.7092,-8.7127,-8.7087,-8.7081,-8.7099,-8.741,-8.7419,-8.7427,-8.7432,0,-8.5548,-8.5473,-8.5734,-8.5722,-8.5725,-8.5917,-8.5907,-8.605,-8.6004,-8.6195,-8.6232,-8.6163,-8.6309,-8.6226,-8.6375,-8.6328,-8.6645,-8.6576,-8.6633,-8.6618,-8.6862,-8.6843,-8.7661,-8.7763,-8.6992,-8.7,-8.7006,0,-8.4951,-8.5189,-8.5063,-8.5219,-8.5478,-8.5353,-8.5613,-8.56,-8.5624,-8.5773,-8.5604,-8.5748,-8.5618,-8.575,-8.568,-8.5923,-8.5949,-8.593,-8.591,-8.595,-8.5953,-8.5999,-8.5966,-8.585,-8.5846,-8.5842,-8.5839,0,-8.4383,-8.4592,-8.4842,-8.4878,-8.4891,-8.5011,-8.5021,-8.5047,-8.5122,-8.5205,-8.5253,-8.5358,-8.5418,-8.5501,-8.5413,-8.5239,-8.5705,-8.5448,-8.5686,-8.569,-8.58,-8.5796,-8.6534,-8.5834,-8.5833,-8.5832,-8.583,0,-8.3892,-8.3979,-8.4352,-8.4358,-8.4418,-8.4582,-8.4678,-8.4799,-8.4839,-8.4805,-8.487,-8.4749,-8.4951,-8.4702,-8.498,-8.4779,-8.4847,-8.4845,-8.486,-8.488,-8.4606,-8.5042,-8.5747,-8.5821,-8.4889,-8.4881,-8.4874,0,-8.3265,-8.362,-8.3517,-8.3873,-8.4027,-8.3828,-8.4007,-8.4047,-8.4018,-8.4143,-8.4107,-8.4252,-8.4048,-8.4083,-8.4229,-8.4202,-8.4462,-8.4163,-8.435,-8.4359,-8.4353,-8.4998,-8.5128,-8.56,-8.4772,-8.4783,-8.4791,0,-8.2771,-8.2783,-8.2855,-8.2891,-8.2923,-8.305,-8.3255,-8.337,-8.346,-8.3521,-8.3693,-8.3889,-8.3745,-8.3804,-8.3717,-8.3875,-8.4282,-8.37,-8.3699,-8.3813,-8.4712,-8.4834,-8.4914,-8.4189,-8.4201,-8.421,-8.471,0,-8.2055,-8.2222,-8.2408,-8.2494,-8.2578,-8.2795,-8.2708,-8.2807,-8.2715,-8.2679,-8.2927,-8.2938,-8.3057,-8.3122,-8.3034,-8.3421,-8.3345,-8.319,-8.2948,-8.337,-8.3533,-8.3599,-8.2712,-8.2704,-8.2697,-8.2692,0,0,-8.1478,-8.1715,-8.1595,-8.179,-8.1855,-8.1646,-8.1887,-8.1925,-8.2008,-8.2058,-8.1919,-8.2203,-8.2219,-8.253,-8.2654,-8.2701,-8.2763,-8.262,-8.3168,-8.3221,-8.3271,-8.3446,-8.3516,-8.268,-8.2678,-8.2676,-8.2674,0,-8.12,-8.1218,-8.1457,-8.149,-8.1535,-8.1485,-8.1543,-8.1552,-8.154,-8.1781,-8.1609,-8.1746,-8.1976,-8.2017,-8.2068,-8.2577,-8.2443,-8.2619,-8.2924,-8.3105,-8.3168,-8.3222,-8.3408,-8.3476,-8.2658,-8.2659,-8.2659,0,-8.0702,-8.0708,-8.0813,-8.0946,-8.0975,-8.1137,-8.0859,-8.1041,-8.116,-8.0926,-8.1169,-8.1165,-8.1212,-8.1515,-8.1648,-8.1527,-8.2156,-8.194,-8.1979,-8.1994,-8.2165,-8.224,-8.2307,-8.1432,-8.1428,-8.1425,0,0,-8.0474,-8.0627,-8.0598,-8.088,-8.091,-8.0839,-8.0916,-8.0833,-8.0879,-8.0898,-8.089,-8.0941,-8.1072,-8.1163,-8.1282,-8.1626,-8.1629,-8.1793,-8.1851,-8.1899,-8.194,-8.2124,-8.2198,-8.141,-8.141,-8.1409,0,0,-8.0366,-8.0343,-8.0242,-8.0558,-8.0608,-8.0598,-8.0775,-8.0651,-8.075,-8.0716,-8.0584,-8.0592,-8.0874,-8.0877,-8.0689,-8.1195,-8.0955,-8.0998,-8.1184,-8.1256,-8.1313,-8.1309,-8.041,0,0,0,0,0,-8.0038,-8.0344,-8.0253,-8.0293,-8.0463,-8.0648,-8.0669,-8.0568,-8.04,-8.0543,-8.0516,-8.0364,-8.0749,-8.0579,-8.0621,-8.0834,-8.122,-8.1253,-8.1285,-8.1605,-8.1681,-8.1745,0,0,0,0,0,0,-8.0053,-8.0103,-8.0245,-8.025,-8.0287,-8.0636,-8.0331,-8.0312,-8.0383,-8.035,-8.0374,-8.0365,-8.0283,-8.0551,-8.059,-8.0795,-8.0396,-8.1233,-8.1261,-8.1287,-8.1631,-8.1693,-8.1746,0,0,0,0,0,-8.0064,-8.0104,-8.0402,-8.0245,-8.0277,-8.0215,-8.0319,-8.03,-8.0353,-8.0314,-8.0299,-8.0271,-8.0291,-8.0317,-8.0574,-8.0779,-8.0368,-8.0383,-8.1251,-8.1274,-8.1294,-8.1661,0,0,0,0,0,0,-8.0073,-8.0088,-8.0406,-8.0412,-8.0122,-8.0193,-8.0201,-8.0291,-8.0309,-8.0299,-8.0202,-8.0177,-8.0301,-8.0319,-8.0341,-8.078,-8.0345,-8.0361,-8.037,-8.1269,-8.1286,-8.1302,0,0,0,0,0,0,-8.0066,-8.0095,-8.0409,-8.026,-8.0247,-8.0174,-8.0181,-8.0384,-8.0312,-8.0196,-8.0175,-8.0191,-8.0269,-8.0323,-8.0338,-8.0659,-8.0327,-8.0342,-8.0352,-8.0359,-8.1283,-8.1297,0,0,0,0,0,0,-8.0076,-8.0101,-8.0257,-8.0248,-8.0237,-8.0296,-8.0351,-8.0531,-8.0184,-8.0199,-8.015,-8.0134,-8.0277,-8.029,-8.0338,-8.0653,-8.0657,-8.0328,-8.0338,-8.0345,-8.035,0,0,0,0,0,0,0,-8.0085,-7.9944,-8.0371,-8.0239,-8.0228,-8.0468,-8.0469,-8.0471,-8.018,-8.0167,-8.0153,-8.0141,-8.0243,-8.0259,-8.0276,-8.0648,0,0,-8.0326,-8.0334,0,0,0,0,0,0,0,0,-7.9931,-7.9941,-8.0371,-8.0372,-8.0374,-8.0468,-8.0469,-8.0471,-8.0178,-8.0167,-8.0156,-8.0146,-8.0248,-8.0261,-8.0274,0,0,0,0,0,0,0,0,0,0,0,0,0,0,0,-8.0371,-8.0372,0,-8.0468,-8.0469,-8.047,-8.0177,-8.0167,-8.0159,-8.015,-8.0251,-8.0262,-8.0273,0,0,0,0,0,0,0,0,0,0,0,0,0,0,0,0,0,0,0,0,0,0,0,0,0,0,0,0,0,0,0,0,0,0,0,0,0,0,0,0,0,0,0,0,0,0,0,0,0,0,0,0,0,0,0,0,0,0,0,0,0,0,0,0,0,0,0,0,0]}],[{"header":{"parameterUnit":"kt","parameterCategory":2,"dx":1,"dy":1,"la1":30.253999710083008,"la2":30.299108505249023,"lo1":-89.0895004272461,"lo2":-89.04439544677734,"nx":28,"ny":28,"refTime":"2022-09-27T21:00:00:Z","depth":0,"parameterNumber":2,"parameterNumberName":"V-component_of_WINDS"},"data":[-16.3374,-16.3638,-16.3607,-16.3892,-16.391,-16.4098,-16.4154,-16.4221,-16.4266,-16.4481,-16.4598,-16.4587,-16.4614,-16.4741,-16.4862,-16.4853,-16.4907,-16.5025,-16.4995,-16.4502,-16.4431,-16.4364,-16.4301,-16.5038,-16.5038,-16.551,-16.5514,-16.5518,-16.3014,-16.3037,-16.318,-16.3295,-16.3415,-16.3283,-16.3361,-16.3469,-16.3638,-16.3694,-16.3807,-16.3992,-16.4132,-16.4117,-16.4244,-16.4361,-16.4304,-16.4398,-16.4388,-16.4394,-16.3866,-16.38,-16.4442,-16.4442,-16.4442,-16.4442,-16.4442,-16.4441,-16.2351,-16.2512,-16.2563,-16.2716,-16.2764,-16.2841,-16.2985,-16.2971,-16.3106,-16.3239,-16.3169,-16.3358,-16.3403,-16.3537,-16.3572,-16.3715,-16.3603,-16.3694,-16.3716,-16.3741,-16.3774,-16.3099,-16.3734,-16.3732,-16.373,-16.3728,-16.3727,0,-16.1856,-16.1818,-16.1952,-16.2077,-16.2186,-16.2278,-16.2356,-16.2444,-16.2345,-16.2461,-16.2623,-16.271,-16.2879,-16.3024,-16.3133,-16.315,-16.3019,-16.3001,-16.3063,-16.3102,-16.3122,-16.3114,-16.2256,-16.2983,-16.2976,-16.2972,-16.2968,-16.2965,-16.1185,-16.1375,-16.1412,-16.151,-16.1545,-16.1704,-16.1791,-16.169,-16.1786,-16.1863,-16.2006,-16.2151,-16.2263,-16.2524,-16.2498,-16.2623,-16.256,-16.2842,-16.2578,-16.2607,-16.2565,-16.2555,-16.2573,-16.2896,-16.2905,-16.2912,-16.2918,0,-16.0809,-16.0755,-16.1038,-16.1054,-16.1063,-16.1267,-16.1277,-16.143,-16.1396,-16.1602,-16.1643,-16.1591,-16.1749,-16.1678,-16.1843,-16.18,-16.2127,-16.2062,-16.2111,-16.2094,-16.2339,-16.2318,-16.3147,-16.325,-16.2485,-16.2492,-16.2498,0,-16.0215,-16.0469,-16.0371,-16.0539,-16.0815,-16.0707,-16.0982,-16.0981,-16.102,-16.1181,-16.1022,-16.1175,-16.1059,-16.12,-16.1138,-16.1391,-16.1422,-16.1404,-16.1385,-16.142,-16.1422,-16.1467,-16.1432,-16.1332,-16.1328,-16.1324,-16.1321,0,-15.9635,-15.9878,-16.015,-16.0196,-16.0237,-16.0366,-16.0388,-16.043,-16.0515,-16.0613,-16.0666,-16.0787,-16.0854,-16.0948,-16.0867,-16.069,-16.1175,-16.0915,-16.1156,-16.1159,-16.1268,-16.1263,-16.2015,-16.1316,-16.1315,-16.1313,-16.1312,0,-15.9145,-15.9253,-15.9655,-15.9684,-15.9752,-15.993,-16.0043,-16.0179,-16.0234,-16.0207,-16.0283,-16.0167,-16.0384,-16.0132,-16.0427,-16.022,-16.0294,-16.0296,-16.0312,-16.0327,-16.0047,-16.0482,-16.1205,-16.1278,-16.034,-16.0332,-16.0325,0,-15.8496,-15.8888,-15.8799,-15.9182,-15.9353,-15.9164,-15.9358,-15.9413,-15.9393,-15.953,-15.9504,-15.9663,-15.9459,-15.9498,-15.9654,-15.9634,-15.9902,-15.9595,-15.9791,-15.9799,-15.9784,-16.0448,-16.0575,-16.1054,-16.022,-16.0231,-16.0239,0,-15.7986,-15.8036,-15.8111,-15.8158,-15.8217,-15.8358,-15.8581,-15.8715,-15.8812,-15.889,-15.9073,-15.9292,-15.9147,-15.9214,-15.9132,-15.9298,-15.9717,-15.912,-15.9119,-15.923,-16.0161,-16.028,-16.0362,-15.9624,-15.9637,-15.9647,-16.0156,0,-15.726,-15.7448,-15.7648,-15.776,-15.7858,-15.8094,-15.8021,-15.8132,-15.8044,-15.8017,-15.8284,-15.8309,-15.8442,-15.8514,-15.843,-15.8834,-15.8755,-15.8598,-15.8348,-15.8784,-15.895,-15.9017,-15.8107,-15.8099,-15.8092,-15.8087,0,0,-15.6652,-15.6921,-15.6816,-15.7031,-15.7107,-15.6908,-15.7166,-15.7216,-15.7322,-15.7377,-15.7237,-15.7551,-15.7577,-15.7908,-15.8038,-15.8093,-15.8157,-15.8008,-15.8577,-15.8632,-15.8683,-15.8861,-15.8933,-15.8075,-15.8073,-15.807,-15.8068,0,-15.6373,-15.641,-15.6669,-15.6717,-15.6784,-15.6743,-15.6806,-15.6835,-15.683,-15.7092,-15.6921,-15.7071,-15.7325,-15.7375,-15.7434,-15.7966,-15.7827,-15.8012,-15.8324,-15.8513,-15.8577,-15.8633,-15.8822,-15.8892,-15.8052,-15.8053,-15.8054,0,-15.5857,-15.5882,-15.5999,-15.6165,-15.6206,-15.6385,-15.6105,-15.6307,-15.6438,-15.6205,-15.6468,-15.6472,-15.6531,-15.6855,-15.6997,-15.6873,-15.7532,-15.731,-15.735,-15.7364,-15.7543,-15.762,-15.7688,-15.6787,-15.6783,-15.6779,0,0,-15.5625,-15.5799,-15.5793,-15.6099,-15.6137,-15.608,-15.6168,-15.609,-15.6151,-15.6176,-15.6178,-15.624,-15.6385,-15.6484,-15.6616,-15.6983,-15.6985,-15.7157,-15.7217,-15.7266,-15.7307,-15.7499,-15.7575,-15.6764,-15.6764,-15.6763,0,0,-15.5512,-15.5518,-15.542,-15.5767,-15.5833,-15.5844,-15.6032,-15.5911,-15.6024,-15.5988,-15.5863,-15.5874,-15.6175,-15.6185,-15.5987,-15.6525,-15.6278,-15.6324,-15.6508,-15.6583,-15.6641,-15.6633,-15.5701,0,0,0,0,0,-15.519,-15.5517,-15.5429,-15.5476,-15.5683,-15.5893,-15.5919,-15.5825,-15.5652,-15.5804,-15.5785,-15.5631,-15.6052,-15.5874,-15.5921,-15.6143,-15.6565,-15.66,-15.6634,-15.6957,-15.7035,-15.7102,0,0,0,0,0,0,-15.5207,-15.5266,-15.5419,-15.5447,-15.5492,-15.5881,-15.5568,-15.5551,-15.5634,-15.5601,-15.5639,-15.5632,-15.5554,-15.5844,-15.5887,-15.61,-15.5686,-15.6579,-15.6609,-15.6636,-15.6984,-15.7048,-15.7103,0,0,0,0,0,-15.5221,-15.5268,-15.5626,-15.5441,-15.5481,-15.5434,-15.5555,-15.5538,-15.56,-15.5573,-15.556,-15.5522,-15.5562,-15.5592,-15.5869,-15.6082,-15.5655,-15.5672,-15.6598,-15.6622,-15.6643,-15.7015,0,0,0,0,0,0,-15.5231,-15.5253,-15.5631,-15.564,-15.5311,-15.541,-15.5423,-15.5528,-15.5564,-15.5556,-15.5447,-15.5421,-15.5573,-15.5594,-15.5618,-15.6082,-15.563,-15.5647,-15.5658,-15.6616,-15.6635,-15.6651,0,0,0,0,0,0,-15.5227,-15.5262,-15.5636,-15.5477,-15.5466,-15.5389,-15.54,-15.5621,-15.5567,-15.5436,-15.5415,-15.5435,-15.5535,-15.5597,-15.5615,-15.5963,-15.5611,-15.5627,-15.5638,-15.5645,-15.6631,-15.6646,0,0,0,0,0,0,-15.5239,-15.5269,-15.5474,-15.5466,-15.5455,-15.5541,-15.5581,-15.5798,-15.5435,-15.5437,-15.5399,-15.5383,-15.5543,-15.5558,-15.5614,-15.5955,-15.5961,-15.5611,-15.5622,-15.563,-15.5635,0,0,0,0,0,0,0,-15.525,-15.5074,-15.5583,-15.5457,-15.5447,-15.5717,-15.5719,-15.5722,-15.5431,-15.5417,-15.5403,-15.539,-15.5518,-15.5536,-15.5554,-15.5949,0,0,-15.561,-15.5618,0,0,0,0,0,0,0,0,-15.5059,-15.5071,-15.5583,-15.5585,-15.5587,-15.5717,-15.5719,-15.5721,-15.5429,-15.5418,-15.5406,-15.5395,-15.5523,-15.5537,-15.5552,0,0,0,0,0,0,0,0,0,0,0,0,0,0,0,-15.5583,-15.5585,0,-15.5718,-15.5719,-15.5721,-15.5427,-15.5418,-15.5409,-15.54,-15.5527,-15.5539,-15.5551,0,0,0,0,0,0,0,0,0,0,0,0,0,0,0,0,0,0,0,0,0,0,0,0,0,0,0,0,0,0,0,0,0,0,0,0,0,0,0,0,0,0,0,0,0,0,0,0,0,0,0,0,0,0,0,0,0,0,0,0,0,0,0,0,0,0,0,0,0]}]]]